Hourly Weather Roundup
Issued by NWS Central Illinois

Home | Current Version | Previous Version | Text Only | Print | Product List | Glossary On
Versions: 1 2 3 4 5 6 7 8 9 10 11 12 13 14 15 16 17 18 19 20 21 22 23 24 25 26 27 28 29 30 31 32 33 34 35 36 37 38 39 40 41 42 43 44 45 46 47 48 49 50
000
NZUS43 KILX 282310
HWRILX

AREA WEATHER ROUNDUP
NATIONAL WEATHER SERVICE, LINCOLN IL
600 PM CDT THU MAY 28 2015


CITY           SKY/WX    TMP DP  RH WIND       PRES   REMARKS
BLOOMINGTON    SUNNY     82  58  43 S10       30.08F HX  82
CHAMPAIGN      MOSUNNY   85  53  33 S6        30.07F HX  83
DANVILLE       SUNNY     83  55  37 CALM      30.06F HAZE    HX  82
DECATUR        PTSUNNY   83  60  45 S7        30.07F HX  83
EFFINGHAM      PTSUNNY   76  62  62 CALM      30.09F
FLORA          MOSUNNY   79  66  64 NE5       30.07F HX  81
GALESBURG      MOSUNNY   79  54  42 S10G16    30.06F HX  80
JACKSONVILLE   TSTM      73  67  83 S3        30.08F
LACON          MOSUNNY   82  49  31 SE8       30.05F HX  81
LAWRENCEVILLE  MOSUNNY   84  62  47 S9        30.08F HX  85
LITCHFIELD     CLOUDY    79  64  59 S8        30.06F HX  81
$$


CITY           SKY/WX    TMP DP  RH WIND       PRES   REMARKS
LINCOLN        PTSUNNY   83  57  40 S6        30.03F HX  83
MACOMB         PTSUNNY   80  56  44 SE7       30.08S HX  80
MATTOON        NOT AVBL
MT CARMEL AP   MOSUNNY   86  55  35 S8        30.08F HX  84
OLNEY-NOBLE AP MOSUNNY   81  64  57 SE8       30.08F HX  82
PARIS          MOSUNNY   84  60  44 S10       30.09F HX  84
PEORIA         MOSUNNY   83  55  38 SE6       30.06F HX  82
PONTIAC        MOSUNNY   86  47  26 S10G17    30.08F HX  83
RANTOUL        SUNNY     87  54  32 S7        30.07F HX  85
ROBINSON       MOSUNNY   84  61  45 SE10G16   30.09F HX  84
SPRINGFIELD    TSTM      77  65  66 SW15G25   30.07R
TAYLORVILLE    CLOUDY    79  64  61 SE6       30.06F HX  81
$$

...REGIONAL REPORTS...


CITY           SKY/WX    TMP DP  RH WIND       PRES   REMARKS
CHICAGO O`HARE PTSUNNY   80  52  37 E15       30.10F HX  80
KANKAKEE       MOSUNNY   82  54  38 SE6       30.09F HX  81
MOLINE         MOSUNNY   80  51  36 SE12      30.04F HX  80
MOUNT VERNON   MOSUNNY   84  66  54 S10       30.07F HX  86
PITTSFIELD     CLOUDY    69  65  86 CALM      30.06F
QUINCY         CLOUDY    73  64  73 CALM      30.06F
ROCKFORD       MOSUNNY   80  53  39 S13       30.09F HX  80
$$


CITY           SKY/WX    TMP DP  RH WIND       PRES   REMARKS
BURLINGTON     PTSUNNY   78  61  55 S7        30.05S HX  80
CEDAR RAPIDS   MOSUNNY   78  53  41 S10       30.04S
DES MOINES     CLOUDY    74  62  66 SE12      30.01F
KIRKSVILLE     LGT RAIN  66  64  93 SW5       30.07F
OTTUMWA        TSTM      67  66  97 S9        30.06R VSB 1
ST LOUIS       CLOUDY    84  66  54 SE10      30.04F HX  86
$$


CITY           SKY/WX    TMP DP  RH WIND       PRES   REMARKS
TERRE HAUTE    SUNNY     84  61  45 S9        30.08F HX  84
EVANSVILLE     MOSUNNY   83  65  54 S6        30.09F HX  85
INDIANAPOLIS   MOSUNNY   81  59  47 S12       30.10F HX  81
LAFAYETTE      MOSUNNY   81  60  48 VRB5      30.09F HX  82
MADISON        PTSUNNY   81  52  36 S10       30.08F HX  80
MILWAUKEE      PTSUNNY   74  55  51 SE12      30.12F
$$





USA.gov is the U.S. government's official web portal to all federal, state and local government web resources and services.